This is the latest recevied weather packets stored in our database for station/object OE3BCB-14. If no packets are shown the sender has not sent any weather packets the latest 10 day(s).
| Time | Temp. | Humidity | Pressure | Rain* | Wind** | Luminosity | Snow |
|---|---|---|---|---|---|---|---|
| 1777644936 | 33.33° C | 19% | 1028.1 hPa | - | - | 165 W/m² | - |
| 1777644634 | 31.67° C | 19% | 1028.2 hPa | - | - | 190 W/m² | - |
| 1777644331 | 33.33° C | 19% | 1028.2 hPa | - | - | 216 W/m² | - |
| 1777644029 | 31.11° C | 19% | 1028.2 hPa | - | - | 226 W/m² | - |
| 1777643726 | 31.67° C | 20% | 1028.3 hPa | - | - | 187 W/m² | - |
| 1777643424 | 31.67° C | 19% | 1028.3 hPa | - | - | 81 W/m² | - |
| 1777642819 | 31.11° C | 20% | 1028.4 hPa | - | - | 114 W/m² | - |
| 1777642517 | 33.33° C | 18% | 1028.5 hPa | - | - | 78 W/m² | - |
| 1777642214 | 34.44° C | 20% | 1028.5 hPa | - | - | 112 W/m² | - |
| 1777641609 | 30.56° C | 20% | 1028.6 hPa | - | - | 88 W/m² | - |
| 1777641307 | 30.56° C | 20% | 1028.7 hPa | - | - | 80 W/m² | - |
| 1777641005 | 33.89° C | 19% | 1028.8 hPa | - | - | 110 W/m² | - |
| 1777640702 | 35° C | 20% | 1028.8 hPa | - | - | 127 W/m² | - |
| 1777640400 | 32.22° C | 21% | 1028.9 hPa | - | - | 116 W/m² | - |
| 1777640097 | 30.56° C | 22% | 1029 hPa | - | - | 114 W/m² | - |
| 1777639795 | 30.56° C | 21% | 1029.1 hPa | - | - | 113 W/m² | - |
| 1777639493 | 27.78° C | 22% | 1029.2 hPa | - | - | 112 W/m² | - |
| 1777639190 | 29.44° C | 21% | 1029.2 hPa | - | - | 68 W/m² | - |
| 1777638888 | 27.78° C | 21% | 1029.2 hPa | - | - | 126 W/m² | - |
| 1777638585 | 27.78° C | 22% | 1029.3 hPa | - | - | 118 W/m² | - |
| 1777638283 | 29.44° C | 20% | 1029.3 hPa | - | - | 47 W/m² | - |
| 1777637981 | 30° C | 21% | 1029.4 hPa | - | - | 81 W/m² | - |
| 1777637678 | 32.22° C | 21% | 1029.5 hPa | - | - | 76 W/m² | - |
| 1777637376 | 30° C | 23% | 1029.5 hPa | - | - | 67 W/m² | - |
| 1777637073 | 28.89° C | 23% | 1029.7 hPa | - | - | 64 W/m² | - |
* Rain since midnight (hover to see other rain measurements)
** Current wind speed in m/s (hover to see current wind gust speed)